Simultaneous Nadir Overpasses (SNOs) Predictions

Prediction of SNOs between LANDSAT-8 and METOP-B Satellite Orbit:

Table of predicted SNOs for the next 14.0 days since TLE Epoch: 6/6/2014
Index Date (LANDSAT-8) Time (LANDSAT-8) Lat,Lon (LANDSAT-8) SZA (LANDSAT-8 ) Date (METOP-B) Time (METOP-B) Lat,Lon (METOP-B) SZA (METOP-B ) Distance(km) Time Diff (sec)
1 06/07/2014 03:36:14 -81.12, -14.17 119.42 06/07/2014 03:35:21 -81.12, -14.26 119.45 1.48 53
2 06/07/2014 04:25:39 81.15, 153.90 60.65 06/07/2014 04:26:00 81.15, 153.95 60.67 1.16 21
3 06/09/2014 23:10:29 -81.13, 52.41 119.66 06/09/2014 23:09:41 -81.13, 52.25 119.70 2.71 48
4 06/09/2014 23:59:54 81.16,-139.54 60.41 06/10/2014 00:00:20 81.16,-139.54 60.42 0.12 26
5 06/12/2014 18:44:45 -81.13, 118.85 119.86 06/12/2014 18:44:02 -81.13, 118.73 119.90 2.21 43
6
